Weather in Botshabelo

South Africa     29°12′28″S   26°43′09″E
В апреле 2022 года жителям России запретили посещать сайт meteo.paraplan.net по решению Генеральной прокуратуры. Аудитория сайта уменьшилась в 10 раз. Владельцы сайта не видят смысла в поддержке погодного сервера в таких условиях. Сайт будет закрыт в октябре.
temp.,
°C
wind,
m/s
gust,
m/s
humid.,
%
clouds,
%
prec.,
mm/h
press.,
hPa
HPBL,
m
6 october, thu
thu623:00+17e111737 0.0 101511
02:00+17nne221848 0.0 101311
05:00+15ne332894 0.0 101520
08:00+22n683229 0.0 1016430
11:00+30wnw8132014 0.0 10132418
14:00+33wnw101415100 0.0 10094974
17:00+25nne24299 0.6 100996
20:00+26nw6111942 0.8 1010232
7 october, fri
fri723:00+17ene222863 0.0 101411
02:00+16sw2221100 0.0 101411
05:00+15wsw111791 0.0 101611
08:00+21s231090 0.0 1018410
11:00+27sw24850 0.0 10171733
14:00+30wsw5860 0.0 10133035
17:00+28sw5490 0.0 10142272
20:00+19sse33240 0.0 101816
8 october, sat
sat823:00+15ne510510 0.0 1021187
02:00+14ene48710 0.0 1020168
05:00+14ne411750 0.0 1021256
08:00+20nne812510 0.0 1021597
11:00+28nnw810270 0.0 10181732
14:00+32nw59142 0.0 10133786
17:00+32wnw68120 0.0 10123882
20:00+22w122727 0.3 101612
9 october, sun
sun923:00+19nne6134889 0.0 1019360
02:00+17ene115251 0.1 101811
05:00+18ne51149100 0.0 1019260
08:00+22n683613 0.0 1021539
11:00+30nnw56190 0.0 10181772
14:00+33wnw4414100 0.0 10154843
17:00+32wnw441313 0.0 10134046
20:00+22ssw41235100 0.2 1020278
10 october, mon
mon1023:00+20se2247100 1.9 102139
02:00+19ne234864 2.0 102144
05:00+19ene6134455 0.0 1020182
08:00+24nne583197 0.0 1021407
11:00+31n431890 0.0 10182125
14:00+33nne111472 0.0 10154061
17:00+32ssw431518 0.0 10122545
20:00+22ene8133978 0.6 1018227